{"data":{"norad_id":68427,"epoch":"2026-09-18T02:56:38.717376Z","epoch_age_seconds":274234,"freshness":"STALE","line1":"1 68427U 26067M   26261.12267034  .00007586  00000+0  34790-3 0  9991","line2":"2 68427  97.4647 218.6328 0002997  59.7703 300.3828 15.20721841 26063","mean_motion":15.20721841,"eccentricity":0.0002997,"inclination_deg":97.4647,"raan_deg":218.6328,"arg_perigee_deg":59.7703,"mean_anomaly_deg":300.3828,"bstar":0.0003479,"rev_number":2606,"period_min":94.69187337068,"perigee_km":501.59955453884,"apogee_km":505.72450487725,"semimajor_km":6881.799029708,"source":"CELESTRAK","updated_at":"2026-09-20T09:00:24.201029Z"}}